| time (UTC) | temp F | wind direction | speed MPH | gust MPH | rain 1hr in | rain 24hr in | rain mn in | humidity % | barometer mb |
| 20260505200542 | 57 | 298 | 5.0 | 13.0 | 0.00 | 0.00 | 0.00 | 48 | 1012.0 |
| 20260505200057 | 56 | 242 | 7.0 | 16.0 | 0.00 | 0.00 | 0.00 | 49 | 1012.1 |
| 20260505195541 | 55 | 254 | 9.0 | 19.0 | 0.00 | 0.00 | 0.00 | 52 | 1012.2 |
| 20260505195041 | 55 | 254 | 10.0 | 19.0 | 0.00 | 0.00 | 0.00 | 54 | 1012.1 |
| 20260505194549 | 55 | 267 | 8.0 | 18.0 | 0.00 | 0.00 | 0.00 | 52 | 1012.0 |
| 20260505194041 | 56 | 253 | 9.0 | 20.0 | 0.00 | 0.00 | 0.00 | 50 | 1012.0 |
| 20260505193541 | 56 | 257 | 8.0 | 20.0 | 0.00 | 0.00 | 0.00 | 48 | 1012.0 |
| 20260505193045 | 56 | 267 | 10.0 | 18.0 | 0.00 | 0.00 | 0.00 | 49 | 1011.9 |
| 20260505192541 | 55 | 255 | 9.0 | 14.0 | 0.00 | 0.00 | 0.00 | 52 | 1011.9 |
| 20260505192041 | 55 | 217 | 8.0 | 14.0 | 0.00 | 0.00 | 0.00 | 52 | 1012.0 |
| 20260505191550 | 55 | 273 | 8.0 | 14.0 | 0.00 | 0.00 | 0.00 | 54 | 1012.0 |
| 20260505191040 | 54 | 286 | 8.0 | 15.0 | 0.00 | 0.00 | 0.00 | 54 | 1012.0 |
| 20260505190541 | 55 | 270 | 9.0 | 20.0 | 0.00 | 0.00 | 0.00 | 57 | 1012.1 |
| 20260505190048 | 55 | 285 | 7.0 | 21.0 | 0.00 | 0.00 | 0.00 | 57 | 1012.1 |
| 20260505185541 | 57 | 255 | 10.0 | 21.0 | 0.00 | 0.00 | 0.00 | 51 | 1012.1 |
| 20260505185041 | 58 | 200 | 9.0 | 18.0 | 0.00 | 0.00 | 0.00 | 45 | 1012.0 |
| 20260505184548 | 59 | 217 | 7.0 | 16.0 | 0.00 | 0.00 | 0.00 | 39 | 1011.7 |
| 20260505184042 | 60 | 238 | 8.0 | 19.0 | 0.00 | 0.00 | 0.00 | 38 | 1011.7 |
| 20260505183540 | 60 | 164 | 9.0 | 19.0 | 0.00 | 0.00 | 0.00 | 37 | 1011.7 |
| 20260505183104 | 60 | 251 | 6.0 | 14.0 | 0.00 | 0.00 | 0.00 | 36 | 1011.7 |
| 20260505182541 | 61 | 198 | 7.0 | 14.0 | 0.00 | 0.00 | 0.00 | 35 | 1011.8 |
| 20260505182043 | 61 | 170 | 5.0 | 12.0 | 0.00 | 0.00 | 0.00 | 34 | 1011.7 |
| 20260505181550 | 62 | 158 | 7.0 | 14.0 | 0.00 | 0.00 | 0.00 | 33 | 1011.7 |
| 20260505181046 | 62 | 190 | 5.0 | 14.0 | 0.00 | 0.00 | 0.00 | 33 | 1011.6 |
| 20260505180543 | 62 | 159 | 8.0 | 12.0 | 0.00 | 0.00 | 0.00 | 32 | 1011.7 |
| 20260505180052 | 62 | 194 | 4.0 | 9.0 | 0.00 | 0.00 | 0.00 | 32 | 1011.6 |
| 20260505175543 | 62 | 173 | 4.0 | 9.0 | 0.00 | 0.00 | 0.00 | 33 | 1011.7 |
| 20260505175043 | 62 | 0 | 4.0 | 10.0 | 0.00 | 0.00 | 0.00 | 34 | 1011.7 |
| 20260505174559 | 61 | 197 | 5.0 | 10.0 | 0.00 | 0.00 | 0.00 | 34 | 1011.8 |
| 20260505174044 | 61 | 190 | 2.0 | 10.0 | 0.00 | 0.00 | 0.00 | 34 | 1012.1 |
| 20260505173543 | 61 | 254 | 4.0 | 10.0 | 0.00 | 0.00 | 0.00 | 33 | 1012.2 |
| 20260505173054 | 61 | 226 | 5.0 | 9.0 | 0.00 | 0.00 | 0.00 | 34 | 1012.1 |
| 20260505172544 | 61 | 290 | 3.0 | 8.0 | 0.00 | 0.00 | 0.00 | 34 | 1012.0 |
| 20260505172046 | 60 | 254 | 4.0 | 8.0 | 0.00 | 0.00 | 0.00 | 34 | 1012.0 |
| 20260505171554 | 60 | 294 | 1.0 | 11.0 | 0.00 | 0.00 | 0.00 | 35 | 1012.2 |
| 20260505171044 | 59 | 221 | 5.0 | 11.0 | 0.00 | 0.00 | 0.00 | 35 | 1012.3 |
| 20260505170544 | 58 | 180 | 3.0 | 11.0 | 0.00 | 0.00 | 0.00 | 37 | 1012.4 |
| 20260505170049 | 57 | 157 | 5.0 | 11.0 | 0.00 | 0.00 | 0.00 | 38 | 1012.4 |
| 20260505165543 | 56 | 270 | 4.0 | 7.0 | 0.00 | 0.00 | 0.00 | 39 | 1012.5 |
| 20260505165044 | 55 | 199 | 2.0 | 10.0 | 0.00 | 0.00 | 0.00 | 40 | 1012.6 |
| 20260505164601 | 55 | 194 | 3.0 | 10.0 | 0.00 | 0.00 | 0.00 | 40 | 1012.7 |
| 20260505164043 | 54 | 238 | 5.0 | 11.0 | 0.00 | 0.00 | 0.00 | 41 | 1012.9 |
| 20260505163545 | 54 | 173 | 7.0 | 12.0 | 0.00 | 0.00 | 0.00 | 41 | 1012.8 |
| 20260505163049 | 54 | 221 | 6.0 | 12.0 | 0.00 | 0.00 | 0.00 | 42 | 1012.9 |
| 20260505162543 | 53 | 194 | 5.0 | 11.0 | 0.00 | 0.00 | 0.00 | 42 | 1012.9 |
| 20260505162043 | 53 | 222 | 6.0 | 11.0 | 0.00 | 0.00 | 0.00 | 43 | 1013.0 |
| 20260505161602 | 53 | 240 | 6.0 | 13.0 | 0.00 | 0.00 | 0.00 | 44 | 1012.9 |
| 20260505161043 | 53 | 210 | 5.0 | 13.0 | 0.00 | 0.00 | 0.00 | 44 | 1013.0 |
| 20260505160543 | 52 | 223 | 5.0 | 11.0 | 0.00 | 0.00 | 0.00 | 44 | 1013.1 |
| 20260505153108 | 53 | 284 | 5.0 | 12.0 | 0.00 | 0.00 | 0.00 | 44 | 1013.1 |
| 20260505152544 | 53 | 261 | 6.0 | 14.0 | 0.00 | 0.00 | 0.00 | 44 | 1013.2 |
| 20260505152042 | 53 | 267 | 7.0 | 14.0 | 0.00 | 0.00 | 0.00 | 44 | 1013.1 |
| 20260505151611 | 53 | 317 | 5.0 | 13.0 | 0.00 | 0.00 | 0.00 | 44 | 1013.1 |
| 20260505151043 | 53 | 278 | 6.0 | 11.0 | 0.00 | 0.00 | 0.00 | 45 | 1013.0 |
| 20260505150543 | 53 | 294 | 5.0 | 11.0 | 0.00 | 0.00 | 0.00 | 45 | 1013.0 |
| 20260505140542 | 52 | 288 | 5.0 | 15.0 | 0.00 | 0.00 | 0.00 | 46 | 1013.1 |
| 20260505140108 | 52 | 269 | 6.0 | 15.0 | 0.00 | 0.00 | 0.00 | 46 | 1013.1 |
| 20260505124550 | 50 | 281 | 4.0 | 14.0 | 0.00 | 0.00 | 0.00 | 48 | 1013.3 |
| 20260505124042 | 49 | 296 | 5.0 | 14.0 | 0.00 | 0.00 | 0.00 | 49 | 1013.3 |
| 20260505123542 | 49 | 297 | 8.0 | 15.0 | 0.00 | 0.00 | 0.00 | 49 | 1013.3 |
| 20260505123058 | 49 | 276 | 6.0 | 15.0 | 0.00 | 0.00 | 0.00 | 48 | 1013.1 |
| 20260505122542 | 48 | 275 | 7.0 | 15.0 | 0.00 | 0.00 | 0.00 | 46 | 1013.1 |
| 20260505122042 | 48 | 283 | 3.0 | 7.0 | 0.00 | 0.00 | 0.00 | 44 | 1013.1 |
| 20260505121543 | 48 | 307 | 3.0 | 7.0 | 0.00 | 0.00 | 0.00 | 44 | 1012.8 |
| 20260505121042 | 49 | 302 | 2.0 | 4.0 | 0.00 | 0.00 | 0.00 | 43 | 1012.9 |
| 20260505120542 | 49 | 317 | 1.0 | 5.0 | 0.00 | 0.00 | 0.00 | 43 | 1012.9 |
| 20260505120054 | 49 | 317 | 2.0 | 5.0 | 0.00 | 0.00 | 0.00 | 42 | 1012.8 |
| 20260505115542 | 49 | 297 | 0.0 | 3.0 | 0.00 | 0.00 | 0.00 | 42 | 1012.6 |
| 20260505115043 | 49 | 297 | 0.0 | 2.0 | 0.00 | 0.00 | 0.00 | 41 | 1012.7 |
| 20260505114559 | 49 | 0 | 0.0 | 5.0 | 0.00 | 0.00 | 0.00 | 42 | 1012.7 |
| 20260505114043 | 50 | 297 | 1.0 | 6.0 | 0.00 | 0.00 | 0.00 | 42 | 1012.8 |
| 20260505113546 | 50 | 304 | 2.0 | 9.0 | 0.00 | 0.00 | 0.00 | 41 | 1013.0 |
| 20260505113111 | 50 | 280 | 2.0 | 9.0 | 0.00 | 0.00 | 0.00 | 41 | 1013.0 |
| 20260505112542 | 50 | 292 | 4.0 | 9.0 | 0.00 | 0.00 | 0.00 | 41 | 1013.0 |
| 20260505112042 | 50 | 284 | 5.0 | 9.0 | 0.00 | 0.00 | 0.00 | 42 | 1012.8 |
| 20260505111551 | 50 | 294 | 4.0 | 9.0 | 0.00 | 0.00 | 0.00 | 42 | 1012.7 |
| 20260505111042 | 50 | 273 | 3.0 | 8.0 | 0.00 | 0.00 | 0.00 | 41 | 1012.8 |
| 20260505110542 | 50 | 274 | 3.0 | 8.0 | 0.00 | 0.00 | 0.00 | 41 | 1012.8 |
| 20260505102042 | 51 | 277 | 2.0 | 5.0 | 0.00 | 0.00 | 0.00 | 39 | 1012.8 |
| 20260505101555 | 51 | 245 | 2.0 | 6.0 | 0.00 | 0.00 | 0.00 | 38 | 1012.7 |
| 20260505101042 | 51 | 259 | 2.0 | 6.0 | 0.00 | 0.00 | 0.00 | 38 | 1012.6 |
| 20260505100542 | 51 | 270 | 2.0 | 3.0 | 0.00 | 0.00 | 0.00 | 38 | 1012.5 |
| 20260505100047 | 52 | 298 | 1.0 | 6.0 | 0.00 | 0.00 | 0.00 | 38 | 1012.6 |
| 20260505095542 | 52 | 286 | 2.0 | 7.0 | 0.00 | 0.00 | 0.00 | 37 | 1012.5 |
| 20260505095046 | 52 | 294 | 2.0 | 11.0 | 0.00 | 0.00 | 0.00 | 37 | 1012.6 |
| 20260505094549 | 52 | 287 | 4.0 | 12.0 | 0.00 | 0.00 | 0.00 | 37 | 1012.6 |
| 20260505094042 | 52 | 277 | 6.0 | 13.0 | 0.00 | 0.00 | 0.00 | 37 | 1012.6 |
| 20260505093542 | 52 | 277 | 6.0 | 13.0 | 0.00 | 0.00 | 0.00 | 37 | 1012.7 |
| 20260505093058 | 52 | 270 | 8.0 | 13.0 | 0.00 | 0.00 | 0.00 | 37 | 1012.7 |
| 20260505092542 | 52 | 284 | 5.0 | 12.0 | 0.00 | 0.00 | 0.00 | 38 | 1012.7 |
| 20260505092042 | 52 | 275 | 3.0 | 7.0 | 0.00 | 0.00 | 0.00 | 38 | 1012.7 |
| 20260505091600 | 52 | 296 | 3.0 | 8.0 | 0.00 | 0.00 | 0.00 | 38 | 1012.7 |
| 20260505091043 | 52 | 287 | 3.0 | 10.0 | 0.00 | 0.00 | 0.00 | 38 | 1012.8 |
| 20260505090541 | 52 | 284 | 4.0 | 11.0 | 0.00 | 0.00 | 0.00 | 38 | 1012.8 |
| 20260505090048 | 52 | 286 | 4.0 | 11.0 | 0.00 | 0.00 | 0.00 | 38 | 1012.8 |
| 20260505085543 | 52 | 288 | 6.0 | 12.0 | 0.00 | 0.00 | 0.00 | 37 | 1012.7 |
| 20260505085042 | 52 | 298 | 6.0 | 12.0 | 0.00 | 0.00 | 0.00 | 37 | 1012.8 |
| 20260505084554 | 52 | 302 | 5.0 | 10.0 | 0.00 | 0.00 | 0.00 | 36 | 1012.9 |
| 20260505084043 | 53 | 318 | 3.0 | 8.0 | 0.00 | 0.00 | 0.00 | 36 | 1013.0 |
| 20260505083542 | 53 | 306 | 3.0 | 8.0 | 0.00 | 0.00 | 0.00 | 35 | 1013.1 |
| 20260505083100 | 53 | 296 | 1.0 | 3.0 | 0.00 | 0.00 | 0.00 | 35 | 1013.1 |
| 20260505082542 | 53 | 272 | 1.0 | 3.0 | 0.00 | 0.00 | 0.00 | 35 | 1013.3 |
| 20260505082043 | 53 | 272 | 1.0 | 7.0 | 0.00 | 0.00 | 0.00 | 35 | 1013.5 |
| 20260505081546 | 53 | 272 | 1.0 | 7.0 | 0.00 | 0.00 | 0.00 | 34 | 1013.6 |
| 20260505081046 | 54 | 262 | 3.0 | 7.0 | 0.00 | 0.00 | 0.00 | 34 | 1013.7 |
| 20260505080542 | 54 | 281 | 1.0 | 4.0 | 0.00 | 0.00 | 0.00 | 33 | 1013.6 |
| 20260505080056 | 54 | 281 | 1.0 | 5.0 | 0.00 | 0.00 | 0.00 | 33 | 1013.6 |
| 20260505075542 | 54 | 281 | 2.0 | 8.0 | 0.00 | 0.00 | 0.00 | 33 | 1013.5 |
| 20260505075043 | 55 | 311 | 3.0 | 8.0 | 0.00 | 0.00 | 0.00 | 33 | 1013.5 |
| 20260505074548 | 55 | 302 | 4.0 | 8.0 | 0.00 | 0.00 | 0.00 | 32 | 1013.6 |
| 20260505074043 | 55 | 313 | 3.0 | 5.0 | 0.00 | 0.00 | 0.00 | 32 | 1013.6 |
| 20260505073543 | 55 | 297 | 2.0 | 6.0 | 0.00 | 0.00 | 0.00 | 32 | 1013.6 |
| 20260505073106 | 56 | 319 | 3.0 | 9.0 | 0.00 | 0.00 | 0.00 | 31 | 1013.3 |
| 20260505072543 | 56 | 306 | 4.0 | 12.0 | 0.00 | 0.00 | 0.00 | 31 | 1013.2 |
| 20260505072043 | 56 | 328 | 6.0 | 12.0 | 0.00 | 0.00 | 0.00 | 31 | 1013.0 |
| 20260505071600 | 56 | 322 | 3.0 | 11.0 | 0.00 | 0.00 | 0.00 | 31 | 1013.1 |
| 20260505071045 | 56 | 301 | 5.0 | 13.0 | 0.00 | 0.00 | 0.00 | 30 | 1013.0 |
| 20260505070545 | 56 | 298 | 6.0 | 13.0 | 0.00 | 0.00 | 0.00 | 30 | 1013.0 |
| 20260505070100 | 57 | 309 | 7.0 | 18.0 | 0.00 | 0.00 | 0.00 | 30 | 1013.1 |
| 20260505065544 | 57 | 313 | 8.0 | 18.0 | 0.00 | 0.00 | 0.00 | 30 | 1013.2 |
| 20260505065042 | 57 | 309 | 8.0 | 16.0 | 0.00 | 0.00 | 0.00 | 30 | 1013.3 |
| 20260505064551 | 57 | 317 | 8.0 | 16.0 | 0.00 | 0.00 | 0.00 | 30 | 1013.1 |
| 20260505064047 | 57 | 295 | 7.0 | 15.0 | 0.00 | 0.00 | 0.00 | 30 | 1013.0 |
| 20260505063543 | 57 | 290 | 8.0 | 15.0 | 0.00 | 0.00 | 0.00 | 30 | 1013.0 |
| 20260505063054 | 57 | 314 | 5.0 | 11.0 | 0.00 | 0.00 | 0.00 | 31 | 1013.0 |
| 20260505062542 | 57 | 290 | 6.0 | 13.0 | 0.00 | 0.00 | 0.00 | 31 | 1013.0 |
| 20260505062043 | 57 | 264 | 6.0 | 13.0 | 0.00 | 0.00 | 0.00 | 31 | 1013.0 |
| 20260505061601 | 57 | 286 | 6.0 | 13.0 | 0.00 | 0.00 | 0.00 | 31 | 1013.0 |
| 20260505061043 | 57 | 273 | 5.0 | 11.0 | 0.00 | 0.00 | 0.00 | 31 | 1012.8 |
| 20260505060543 | 57 | 287 | 2.0 | 11.0 | 0.00 | 0.00 | 0.00 | 31 | 1012.9 |
| 20260505060055 | 58 | 284 | 4.0 | 11.0 | 0.00 | 0.00 | 0.00 | 31 | 1012.8 |
| 20260505055543 | 58 | 269 | 6.0 | 13.0 | 0.00 | 0.00 | 0.00 | 31 | 1013.0 |
| 20260505055043 | 58 | 281 | 5.0 | 13.0 | 0.00 | 0.00 | 0.00 | 31 | 1013.0 |
| 20260505054555 | 58 | 259 | 7.0 | 15.0 | 0.00 | 0.00 | 0.00 | 31 | 1012.9 |
| 20260505054042 | 58 | 257 | 7.0 | 15.0 | 0.00 | 0.00 | 0.00 | 31 | 1012.7 |
| 20260505053542 | 58 | 276 | 8.0 | 13.0 | 0.00 | 0.00 | 0.00 | 31 | 1012.7 |
| 20260505053058 | 58 | 273 | 5.0 | 15.0 | 0.00 | 0.00 | 0.00 | 31 | 1012.7 |
| 20260505052543 | 58 | 263 | 8.0 | 15.0 | 0.00 | 0.00 | 0.00 | 31 | 1012.7 |
| 20260505052043 | 58 | 258 | 5.0 | 9.0 | 0.00 | 0.00 | 0.00 | 32 | 1012.8 |
| 20260505051602 | 58 | 263 | 3.0 | 9.0 | 0.00 | 0.00 | 0.00 | 32 | 1012.7 |
| 20260505051045 | 58 | 280 | 3.0 | 10.0 | 0.00 | 0.00 | 0.00 | 32 | 1012.6 |
| 20260505050542 | 58 | 259 | 5.0 | 10.0 | 0.00 | 0.00 | 0.00 | 32 | 1012.7 |
| 20260505050103 | 58 | 271 | 3.0 | 10.0 | 0.00 | 0.00 | 0.00 | 32 | 1012.8 |
| 20260505041547 | 59 | 0 | 0.0 | 3.0 | 0.00 | 0.00 | 0.00 | 30 | 1012.9 |
| 20260505041043 | 59 | 0 | 0.0 | 4.0 | 0.00 | 0.00 | 0.00 | 29 | 1013.0 |
| 20260505040543 | 59 | 342 | 2.0 | 4.0 | 0.00 | 0.00 | 0.00 | 29 | 1012.9 |
| 20260505040050 | 59 | 336 | 2.0 | 6.0 | 0.00 | 0.00 | 0.00 | 29 | 1013.0 |
| 20260505035543 | 59 | 331 | 2.0 | 8.0 | 0.00 | 0.00 | 0.00 | 29 | 1013.0 |
| 20260505035042 | 60 | 309 | 4.0 | 8.0 | 0.00 | 0.00 | 0.00 | 29 | 1013.0 |
| 20260505034552 | 60 | 313 | 4.0 | 8.0 | 0.00 | 0.00 | 0.00 | 29 | 1013.0 |
| 20260505034043 | 60 | 309 | 3.0 | 8.0 | 0.00 | 0.00 | 0.00 | 28 | 1013.0 |
| 20260505033544 | 60 | 306 | 3.0 | 9.0 | 0.00 | 0.00 | 0.00 | 28 | 1012.9 |
| 20260505033049 | 60 | 311 | 3.0 | 11.0 | 0.00 | 0.00 | 0.00 | 27 | 1012.9 |
| 20260505032543 | 60 | 316 | 5.0 | 11.0 | 0.00 | 0.00 | 0.00 | 27 | 1012.8 |
| 20260505032048 | 60 | 314 | 4.0 | 10.0 | 0.00 | 0.00 | 0.00 | 27 | 1012.8 |
| 20260505031553 | 61 | 286 | 3.0 | 10.0 | 0.00 | 0.00 | 0.00 | 26 | 1012.7 |
| 20260505031043 | 61 | 309 | 4.0 | 9.0 | 0.00 | 0.00 | 0.00 | 26 | 1012.5 |
| 20260505030544 | 61 | 293 | 4.0 | 10.0 | 0.00 | 0.00 | 0.00 | 25 | 1012.5 |
| 20260505030047 | 61 | 313 | 5.0 | 13.0 | 0.00 | 0.00 | 0.00 | 25 | 1012.4 |
| 20260505025543 | 61 | 293 | 8.0 | 13.0 | 0.00 | 0.00 | 0.00 | 25 | 1012.3 |
| 20260505025043 | 61 | 307 | 7.0 | 16.0 | 0.00 | 0.00 | 0.00 | 25 | 1012.3 |
| 20260505024627 | 61 | 304 | 8.0 | 16.0 | 0.00 | 0.00 | 0.00 | 25 | 1012.2 |
| 20260505024043 | 62 | 309 | 8.0 | 16.0 | 0.00 | 0.00 | 0.00 | 24 | 1012.2 |
| 20260505023543 | 62 | 285 | 6.0 | 15.0 | 0.00 | 0.00 | 0.00 | 24 | 1012.1 |
| 20260505023055 | 62 | 315 | 6.0 | 14.0 | 0.00 | 0.00 | 0.00 | 24 | 1012.1 |
| 20260505022544 | 62 | 288 | 7.0 | 16.0 | 0.00 | 0.00 | 0.00 | 23 | 1012.0 |
| 20260505022043 | 62 | 300 | 8.0 | 16.0 | 0.00 | 0.00 | 0.00 | 23 | 1012.0 |
| 20260505021549 | 62 | 282 | 7.0 | 14.0 | 0.00 | 0.00 | 0.00 | 23 | 1011.9 |
| 20260505021042 | 62 | 250 | 7.0 | 16.0 | 0.00 | 0.00 | 0.00 | 22 | 1012.0 |
| 20260505020542 | 63 | 307 | 8.0 | 16.0 | 0.00 | 0.00 | 0.00 | 22 | 1012.0 |
| 20260505020053 | 63 | 284 | 10.0 | 16.0 | 0.00 | 0.00 | 0.00 | 21 | 1012.0 |
| 20260505015543 | 63 | 313 | 7.0 | 16.0 | 0.00 | 0.00 | 0.00 | 21 | 1012.0 |
| 20260505015045 | 63 | 288 | 7.0 | 18.0 | 0.00 | 0.00 | 0.00 | 21 | 1012.0 |
| 20260505014553 | 63 | 286 | 8.0 | 19.0 | 0.00 | 0.00 | 0.00 | 21 | 1012.0 |
| 20260505014046 | 64 | 297 | 9.0 | 19.0 | 0.00 | 0.00 | 0.00 | 20 | 1012.0 |
| 20260505013544 | 64 | 286 | 11.0 | 18.0 | 0.00 | 0.00 | 0.00 | 20 | 1011.9 |
| 20260505013102 | 64 | 285 | 7.0 | 14.0 | 0.00 | 0.00 | 0.00 | 20 | 1011.7 |
| 20260505012546 | 64 | 306 | 5.0 | 16.0 | 0.00 | 0.00 | 0.00 | 20 | 1011.6 |
| 20260505012044 | 64 | 302 | 7.0 | 16.0 | 0.00 | 0.00 | 0.00 | 19 | 1011.6 |
| 20260505011601 | 65 | 310 | 8.0 | 15.0 | 0.00 | 0.00 | 0.00 | 19 | 1011.6 |
| 20260505011042 | 65 | 268 | 8.0 | 19.0 | 0.00 | 0.00 | 0.00 | 19 | 1011.6 |
| 20260505010542 | 65 | 260 | 8.0 | 19.0 | 0.00 | 0.00 | 0.00 | 19 | 1011.6 |
| 20260505010107 | 65 | 298 | 10.0 | 19.0 | 0.00 | 0.00 | 0.00 | 19 | 1011.6 |
| 20260505005543 | 65 | 272 | 9.0 | 20.0 | 0.00 | 0.00 | 0.00 | 19 | 1011.7 |
| 20260505005043 | 65 | 288 | 10.0 | 20.0 | 0.00 | 0.00 | 0.00 | 18 | 1011.8 |
| 20260505004552 | 66 | 279 | 12.0 | 20.0 | 0.00 | 0.00 | 0.00 | 18 | 1011.8 |
| 20260505004042 | 66 | 300 | 8.0 | 19.0 | 0.00 | 0.00 | 0.00 | 18 | 1011.8 |
| 20260505003546 | 66 | 293 | 11.0 | 19.0 | 0.00 | 0.00 | 0.00 | 18 | 1011.9 |
| 20260505003056 | 66 | 285 | 8.0 | 26.0 | 0.00 | 0.00 | 0.00 | 18 | 1011.9 |
| 20260505002543 | 66 | 268 | 9.0 | 26.0 | 0.00 | 0.00 | 0.00 | 18 | 1011.8 |
| 20260505002043 | 66 | 286 | 10.0 | 21.0 | 0.00 | 0.00 | 0.00 | 18 | 1011.8 |
| 20260505001550 | 66 | 322 | 11.0 | 19.0 | 0.00 | 0.00 | 0.00 | 18 | 1011.7 |
| 20260505001042 | 67 | 279 | 10.0 | 19.0 | 0.00 | 0.00 | 0.00 | 18 | 1011.7 |
| 20260505000543 | 67 | 262 | 7.0 | 20.0 | 0.00 | 0.00 | 0.00 | 18 | 1011.9 |
| 20260505000058 | 67 | 292 | 9.0 | 20.0 | 0.00 | 0.00 | 0.00 | 18 | 1012.0 |
| 20260504235543 | 67 | 266 | 9.0 | 18.0 | 0.00 | 0.00 | 0.00 | 18 | 1012.0 |
| 20260504235043 | 67 | 274 | 8.0 | 17.0 | 0.00 | 0.00 | 0.00 | 19 | 1012.0 |
| 20260504234549 | 67 | 293 | 8.0 | 19.0 | 0.00 | 0.00 | 0.00 | 19 | 1012.0 |
| 20260504234043 | 67 | 260 | 8.0 | 20.0 | 0.00 | 0.00 | 0.00 | 18 | 1012.0 |
| 20260504233543 | 67 | 289 | 11.0 | 20.0 | 0.00 | 0.00 | 0.00 | 19 | 1012.0 |
| 20260504233104 | 68 | 328 | 11.0 | 20.0 | 0.00 | 0.00 | 0.00 | 19 | 1012.0 |
| 20260504232542 | 68 | 270 | 8.0 | 21.0 | 0.00 | 0.00 | 0.00 | 19 | 1012.0 |
| 20260504232042 | 68 | 276 | 11.0 | 21.0 | 0.00 | 0.00 | 0.00 | 18 | 1012.0 |
| 20260504231550 | 69 | 331 | 9.0 | 18.0 | 0.00 | 0.00 | 0.00 | 18 | 1011.9 |
| 20260504231043 | 69 | 295 | 7.0 | 19.0 | 0.00 | 0.00 | 0.00 | 19 | 1012.0 |
| 20260504230546 | 69 | 276 | 9.0 | 20.0 | 0.00 | 0.00 | 0.00 | 19 | 1012.1 |
| 20260504230053 | 69 | 301 | 12.0 | 20.0 | 0.00 | 0.00 | 0.00 | 19 | 1012.2 |
| 20260504225543 | 68 | 276 | 6.0 | 19.0 | 0.00 | 0.00 | 0.00 | 19 | 1012.3 |
| 20260504225042 | 68 | 288 | 10.0 | 19.0 | 0.00 | 0.00 | 0.00 | 19 | 1012.2 |
| 20260504224549 | 68 | 274 | 9.0 | 21.0 | 0.00 | 0.00 | 0.00 | 19 | 1012.2 |
| 20260504224043 | 68 | 290 | 12.0 | 21.0 | 0.00 | 0.00 | 0.00 | 19 | 1012.4 |
| 20260504223543 | 68 | 286 | 9.0 | 19.0 | 0.00 | 0.00 | 0.00 | 19 | 1012.4 |
| 20260504223058 | 68 | 321 | 9.0 | 19.0 | 0.00 | 0.00 | 0.00 | 19 | 1012.3 |
| 20260504222543 | 68 | 259 | 11.0 | 19.0 | 0.00 | 0.00 | 0.00 | 18 | 1012.4 |
| 20260504222042 | 68 | 288 | 8.0 | 19.0 | 0.00 | 0.00 | 0.00 | 17 | 1012.6 |
| 20260504221552 | 69 | 269 | 9.0 | 21.0 | 0.00 | 0.00 | 0.00 | 17 | 1012.6 |
| 20260504221042 | 69 | 310 | 10.0 | 21.0 | 0.00 | 0.00 | 0.00 | 17 | 1012.8 |
| 20260504220542 | 69 | 271 | 6.0 | 20.0 | 0.00 | 0.00 | 0.00 | 17 | 1012.6 |
| 20260504220056 | 69 | 286 | 12.0 | 20.0 | 0.00 | 0.00 | 0.00 | 16 | 1012.8 |
| 20260504215543 | 70 | 265 | 10.0 | 18.0 | 0.00 | 0.00 | 0.00 | 16 | 1013.0 |
| 20260504215042 | 70 | 298 | 11.0 | 18.0 | 0.00 | 0.00 | 0.00 | 16 | 1013.0 |
| 20260504214614 | 71 | 292 | 9.0 | 17.0 | 0.00 | 0.00 | 0.00 | 15 | 1013.0 |
| 20260504214043 | 71 | 298 | 7.0 | 15.0 | 0.00 | 0.00 | 0.00 | 15 | 1013.0 |
| 20260504213543 | 71 | 320 | 7.0 | 23.0 | 0.00 | 0.00 | 0.00 | 14 | 1012.8 |
| 20260504213055 | 70 | 231 | 9.0 | 23.0 | 0.00 | 0.00 | 0.00 | 15 | 1013.0 |
| 20260504212543 | 70 | 299 | 11.0 | 21.0 | 0.00 | 0.00 | 0.00 | 14 | 1013.2 |
| 20260504212044 | 70 | 294 | 9.0 | 21.0 | 0.00 | 0.00 | 0.00 | 15 | 1013.1 |
| 20260504211552 | 69 | 302 | 10.0 | 18.0 | 0.00 | 0.00 | 0.00 | 14 | 1013.3 |
| 20260504211046 | 69 | 270 | 10.0 | 17.0 | 0.00 | 0.00 | 0.00 | 14 | 1013.3 |
| 20260504210542 | 69 | 319 | 9.0 | 19.0 | 0.00 | 0.00 | 0.00 | 14 | 1013.4 |
| 20260504210055 | 69 | 256 | 10.0 | 24.0 | 0.00 | 0.00 | 0.00 | 14 | 1013.6 |
| 20260504205544 | 70 | 259 | 14.0 | 24.0 | 0.00 | 0.00 | 0.00 | 13 | 1013.7 |
| 20260504205043 | 70 | 250 | 8.0 | 18.0 | 0.00 | 0.00 | 0.00 | 15 | 1013.6 |
| 20260504204601 | 70 | 298 | 10.0 | 20.0 | 0.00 | 0.00 | 0.00 | 15 | 1013.9 |
| 20260504204053 | 69 | 268 | 11.0 | 23.0 | 0.00 | 0.00 | 0.00 | 15 | 1013.9 |
| 20260504203546 | 69 | 219 | 11.0 | 23.0 | 0.00 | 0.00 | 0.00 | 17 | 1014.0 |
| 20260504203046 | 69 | 205 | 9.0 | 18.0 | 0.00 | 0.00 | 0.00 | 17 | 1013.9 |
| 20260504202543 | 69 | 294 | 11.0 | 22.0 | 0.00 | 0.00 | 0.00 | 17 | 1014.1 |
| 20260504202043 | 69 | 275 | 8.0 | 22.0 | 0.00 | 0.00 | 0.00 | 18 | 1014.1 |
| 20260504201600 | 69 | 234 | 14.0 | 22.0 | 0.00 | 0.00 | 0.00 | 17 | 1014.2 |
| 20260504201047 | 70 | 217 | 8.0 | 17.0 | 0.00 | 0.00 | 0.00 | 18 | 1014.2 |